Location: River House Observatory
(37.8577°N, 76.3548°W)
Time: 03:09:03
(UTC-05:00)

Daily predictions for brighter satellites

Satellite Brightness Start Highest point End
(mag) Time Altitude Azimuth Time Altitude Azimuth Time Altitude Azimuth
SL-16 R/B 4.3 03:35:20 23° E 03:35:20 23° E 03:38:52 10° NE
USA 215 3.8 03:47:29 10° NE 03:53:24 52° ESE 03:53:24 52° ESE
CENTAUR R/B 3.1 04:11:32 48° NE 04:11:32 48° NE 04:16:20 10° NNE
Centaur D-1AR AC-39 4.4 04:15:18 16° S 04:15:18 16° S 04:16:45 10° SSE
Gbstr 26 Del rocket 4.5 04:26:07 37° E 04:26:07 37° E 04:28:55 10° ESE
Thor Agena Rocket 4.0 04:36:09 10° SSE 04:39:45 48° S 04:39:45 48° S
Lacrosse 5 4.1 04:47:32 10° S 04:51:32 23° ESE 04:55:31 10° ENE
Cosmos 2333 Rocket 4.4 04:56:53 12° N 04:56:53 12° N 04:57:17 10° N
Meteor 1-14 Rocket 4.0 04:48:22 10° SSW 04:54:02 73° W 04:59:39 10° N
COSMO-SKYMED 1 3.9 04:51:34 10° SE 04:55:35 39° ENE 04:59:03 13° N
Cosmos 2297 3.5 04:54:45 56° NNW 04:56:00 84° WSW 05:01:39 10° SSE
Cosmos 921 Rocket 4.3 04:55:07 21° N 04:57:40 41° ENE 05:01:56 10° SE
DELTA 2 R/B (1) 3.6 05:01:35 54° WSW 05:02:20 60° SSW 05:07:47 10° SE
SJ-6F 4.5 04:58:37 10° NNE 05:02:42 74° E 05:06:46 10° S
BREEZE-M DEB (TANK) 4.3 05:02:43 26° SSW 05:04:55 58° SE 05:15:54 10° NE
Celestis-02/Orion 38 4.5 05:06:07 10° SSE 05:11:15 77° WSW 05:13:27 36° NW
Cosmos 2074 Rocket 3.9 05:05:14 10° S 05:11:31 89° W 05:17:49 10° N
Cosmos 2278 Rocket 3.6 05:14:02 22° SW 05:14:02 22° SW 05:16:38 10° SSW
Okean 1 3.9 05:09:30 19° N 05:12:19 58° E 05:16:17 10° SSE
USA 32 4.0 05:09:10 10° N 05:14:25 88° E 05:19:39 10° S
Meteor 1-25 Rocket 4.2 05:11:33 10° SSW 05:17:21 71° W 05:23:11 10° N
SL-16 R/B 2.4 05:17:23 41° W 05:18:14 44° WNW 05:23:38 10° N
Cosmos 1300 Rocket 4.2 05:17:20 10° S 05:21:40 56° E 05:25:59 10° NNE
Ariane Rocket 3.5 05:16:50 10° NNE 05:21:51 61° ESE 05:26:50 10° S
CRYOSAT 2 4.3 05:18:41 10° S 05:23:33 86° E 05:28:28 10° N
Cosmos 2184 Rocket 3.8 05:19:04 10° SSW 05:25:11 72° W 05:31:23 10° N
Cosmos 292 Rocket 4.0 05:23:40 28° SW 05:25:52 46° WNW 05:30:32 10° N
Cosmos 1812 2.7 05:28:27 46° NW 05:29:09 55° W 05:32:56 10° S
Cosmos 1346 Rocket 2.7 05:28:50 15° N 05:32:00 83° E 05:35:55 10° S
GPS 2-05 Rocket1 3.1 05:32:52 41° WSW 05:33:50 60° S 05:37:24 10° ESE
Iridium 2 3.9 05:30:18 10° SSW 05:33:57 46° W 05:35:36 27° NNW
USA 215 3.6 05:30:36 10° NE 05:36:43 45° NW 05:40:47 21° W
Cosmos 2154 Rocket 4.2 05:34:17 10° S 05:40:29 77° E 05:46:42 10° N
CZ-4 R/B 3.5 05:37:02 10° NE 05:40:31 29° E 05:43:57 10° SSE
Cosmos 1680 Rocket 4.2 05:38:54 24° WSW 05:40:54 31° WNW 05:45:31 10° N
SKYMED 2 3.6 05:39:20 10° S 05:43:35 57° W 05:47:41 11° NNW
Cosmos 2151 Rocket 4.2 05:40:28 10° SW 05:44:34 34° WNW 05:48:41 10° NNW
Meteor 1-28 Rocket 3.1 05:49:58 10° S 05:53:43 82° WSW 05:57:33 10° NNW
Cosmos 1536 3.3 05:51:06 10° S 05:55:01 64° E 05:59:00 10° NNE
CSL-04 DEB 4.5 05:51:12 10° N 05:55:09 54° WNW 05:59:11 10° SSW
Cosmos 1633 2.4 05:52:54 10° S 05:56:33 76° W 06:00:12 10° N
CZ-3 R/B 3.3 05:49:16 10° SW 05:56:51 22° S 06:00:15 10° SE
Meteor 2-4 Rocket 4.3 05:55:22 10° N 06:00:48 61° E 06:06:23 10° SSE
CENTAUR R/B 3.8 05:58:46 17° WNW 06:01:14 21° NW 06:06:17 10° N
Abrixas rocket 2.7 05:58:59 10° SW 06:02:19 64° SE 06:05:39 10° ENE
Tiangong 2 2.1 06:05:56 19° NW 06:07:37 31° N 06:10:29 10° ENE
Helios 1B rocket 3.7 06:04:51 10° SE 06:08:46 42° ENE 06:12:41 10° N
CSL-04 Debris 4.1 06:05:26 10° N 06:10:53 70° WNW 06:16:19 10° SSW
CSL-04 Rocket 3.7 06:05:42 10° N 06:11:09 59° WNW 06:16:33 10° SSW
Gbstr 26 Del rocket 4.4 06:08:43 15° W 06:11:15 23° SW 06:14:27 10° S
CZ-2C R/B 3.3 06:06:30 10° NNE 06:11:37 57° E 06:16:36 10° S
Cosmos 1603 4.1 06:10:22 10° SW 06:15:41 40° WNW 06:21:01 10° N
YAOGAN 1 3.4 06:12:55 10° NNE 06:17:12 57° E 06:21:27 10° S
SL-8 Rocket 4.4 06:11:50 10° S 06:18:03 69° E 06:24:15 10° NNE
Cosmos 2369 Rocket 2.5 06:14:58 10° NNW 06:20:42 72° ENE 06:26:22 10° SSE
Cosmos 44 3.6 06:17:42 10° SSW 06:23:05 83° ESE 06:28:21 10° NNE
SMAP 3.3 06:20:21 10° NNE 06:25:01 76° ESE 06:29:40 10° S
Okean 1 Rocket 3.8 06:23:18 10° SW 06:27:15 32° WNW 06:31:12 10° NNW
Cosmos 1025 Rocket 3.0 06:23:25 10° N 06:27:49 76° W 06:32:09 10° S
Cosmos 2218 Rocket 4.4 06:24:26 10° S 06:30:47 73° E 06:37:11 10° N
COSMO-SKYMED 1 4.2 06:29:09 10° SW 06:31:52 16° W 06:34:36 10° NW
PSLV R/B 3.3 06:29:25 10° WNW 06:32:49 79° NNE 06:36:10 10° ESE
Cosmos 1544 Rocket 3.9 06:28:46 10° S 06:33:04 70° E 06:37:26 10° NNE
Lacrosse 5 2.1 06:29:11 10° WSW 06:34:10 52° NW 06:39:10 10° NNE
PAYLOAD A 4.2 06:30:24 10° N 06:35:38 57° WNW 06:40:56 10° SSW
Kosmos-1675 4.0 06:33:19 10° SW 06:35:59 51° NW 06:45:31 10° NNE
GRACE-2 4.0 06:34:03 10° N 06:36:46 51° W 06:39:28 10° SSW
Okean 1-7 Rocket 4.2 06:32:50 10° NNW 06:36:52 36° W 06:40:52 10° SSW
GRACE-1 4.0 06:34:28 10° N 06:37:11 49° W 06:39:53 10° SSW
Nadezhda 3 Rocket 4.5 06:32:50 10° NNW 06:38:43 41° W 06:44:36 10° SSW
SPOT 3 Rocket 3.6 06:33:45 10° NNE 06:38:55 85° WNW 06:44:03 10° SSW
CORIOLIS 4.2 06:36:25 10° NNE 06:41:48 88° ESE 06:47:08 10° SSW
Cosmos 1943 3.3 06:37:26 10° SW 06:42:53 53° WNW 06:48:25 10° NNE
